{"data":{"norad_id":65801,"intl_designator":"2025-218L","name":"STARLINK-35296","alt_names":[],"object_type":"PAYLOAD","status":"ACTIVE","operator":null,"country":"US","launch_date":"2025-09-26","launch_site_code":"AFWTR","launch_vehicle":null,"mission":null,"orbit_class":"UNKNOWN","rcs_meters":null,"size_class":null,"mass_kg":null,"dimensions":null,"purposes":["comms"],"wikipedia_slug":null,"has_3d_model":false,"image_url":null,"decayed_at":null,"tle_current":{"epoch":"2026-09-20T12:47:10.341312Z","epoch_age_seconds":103275,"freshness":"FRESH","line1":"1 65801U 25218L   26263.53275858  .00009107  00000+0  28401-3 0  9994","line2":"2 65801  97.2840 120.8366 0001761  94.7950 265.3494 15.33451045 54336","mean_motion":15.33451045,"eccentricity":0.0001761,"inclination_deg":97.284,"raan_deg":120.8366,"arg_perigee_deg":94.795,"mean_anomaly_deg":265.3494,"bstar":0.00028401,"rev_number":5433,"period_min":93.905834470249,"perigee_km":464.32001995877,"apogee_km":466.7303577817,"semimajor_km":6843.6621888702,"source":"CELESTRAK","updated_at":"2026-09-21T09:00:35.715370Z"}}}